Regional Weather Roundup
Issued by NWS

Home | Current Version | Previous Version | Text Only | Print | Product List | Glossary Off
Versions: 1 2 3 4 5 6 7 8 9 10 11 12 13 14 15 16 17 18 19 20 21 22 23 24 25 26 27 28

000
ASUS45 KCYS 230010
RWRWY

WYOMING REGIONAL WEATHER ROUNDUP
NATIONAL WEATHER SERVICE CHEYENNE WY
600 PM MDT SUN OCT 22 2017

NOTE:  "FAIR" INDICATES FEW OR NO CLOUDS BELOW 12,000 FEET
WITH NO SIGNIFICANT WEATHER AND/OR OBSTRUCTIONS TO VISIBILITY.

WYZ001-230100-
YELLOWSTONE NATIONAL PARK

CITY           SKY/WX    TMP DP  RH WIND       PRES   REMARKS
LK YELLOWSTONE   N/A     37  35  92 W8        30.18R WCI  31
6HR MIN TEMP:  35; 6HR MAX TEMP:  37;

W YELLOWSTONE  NOT AVBL

$$
WYZ002>013-054>058-071-098>099-230100-
NORTHERN WYOMING

CITY           SKY/WX    TMP DP  RH WIND       PRES   REMARKS
JACKSON        CLOUDY    48  32  53 SW20G29   30.25S
CODY           FAIR      54  33  45 VRB5G20   30.01R
GREYBULL       FAIR      62  32  32 W18G30    29.96R
6HR MIN TEMP:  52; 6HR MAX TEMP:  65;

WORLAND        FAIR      53  36  52 CALM      29.97R
6HR MIN TEMP:  48; 6HR MAX TEMP:  62;

SHERIDAN       FAIR      64  31  28 W22G31    29.89R
6HR MIN TEMP:  64; 6HR MAX TEMP:  67;

BUFFALO        FAIR      61  24  24 W10G21    29.92S
6HR MIN TEMP:  61; 6HR MAX TEMP:  68;

GILLETTE         N/A     58  30  34 W7        29.90R
6HR MIN TEMP:  58; 6HR MAX TEMP:  66;

HULETT         FAIR      63  28  27 W12G18    29.88R
NEWCASTLE      FAIR      59  27  29 W8G16     29.91R

$$
WYZ014>020-022>026-101>103-230100-
CENTRAL WYOMING

CITY           SKY/WX    TMP DP  RH WIND       PRES   REMARKS
BIG PINEY      FAIR      47  30  51 NW15G25   30.30R
6HR MIN TEMP:  47; 6HR MAX TEMP:  55;

PINEDALE       FAIR      46  30  53 W24       30.31R
DUBOIS         FAIR      43  30  61 W35G45    30.15S
LANDER         FAIR      60  29  30 W10       30.06F
6HR MIN TEMP:  53; 6HR MAX TEMP:  64;

RIVERTON       FAIR      60  29  30 W28G38    30.07R
6HR MIN TEMP:  52; 6HR MAX TEMP:  65;

CASPER         FAIR      58  27  30 SW21G28   30.04S
6HR MIN TEMP:  55; 6HR MAX TEMP:  61; 6HR PCP: TRACE;

DOUGLAS        FAIR      59  27  29 W20G30    29.98F
6HR MIN TEMP:  58; 6HR MAX TEMP:  66;


$$
WYZ021-027>030-104>119-230100-
SOUTHERN WYOMING

CITY           SKY/WX    TMP DP  RH WIND       PRES   REMARKS
EVANSTON       CLOUDY    53  26  35 W17G24    30.41R
6HR MIN TEMP:  52; 6HR MAX TEMP:  59;

KEMMERER       CLOUDY    50  27  40 W20G31    30.36R
FORT BRIDGER   FAIR      55  23  29 W24G37    30.37F
ROCK SPRINGS   CLOUDY    53  24  32 W20G28    30.31R
6HR MIN TEMP:  49; 6HR MAX TEMP:  57;

DIXON          CLOUDY    55  27  34 S15G25    30.33R
RAWLINS        FAIR      55  26  32 W29G45    30.20S
6HR MIN TEMP:  48; 6HR MAX TEMP:  56;

SARATOGA       FAIR      52  25  35 SW21G30   30.26F
LARAMIE        FAIR      49  23  36 S15       30.19F
6HR MIN TEMP:  49; 6HR MAX TEMP:  57;

CHEYENNE       FAIR      58  24  27 W16G31    30.12S
6HR MIN TEMP:  58; 6HR MAX TEMP:  65;

TORRINGTON     FAIR      64  26  23 W21G33    29.98R
6HR MIN TEMP:  62; 6HR MAX TEMP:  68;

PINE BLUFFS    FAIR      61  23  23 W18G26    30.07S

$$




USA.gov is the U.S. government's official web portal to all federal, state and local government web resources and services.